EW2849 Weather Reports


Display with metric or nautical units.
time (UTC)temp
F
wind
direction
speed
MPH
gust
MPH
rain 1hr
in
rain 24hr
in
rain mn
in
humidity
%
barometer
mb
20260905223951 55 61 0.0 1.0 0.00 0.00 0.00 93 1025.8
20260905222830 55 106 1.0 1.0 0.00 0.00 0.00 93 1025.8
20260905221549 55 0.0 0.0 0.00 0.00 0.00 92 1025.8
20260905220408 56 0.0 1.0 0.00 0.00 0.00 91 1025.8
20260905215802 56 113 0.0 1.0 0.00 0.00 0.00 91 1025.8
20260905214520 56 0.0 1.0 0.00 0.00 0.00 90 1025.8
20260905213319 57 0.0 0.0 0.00 0.00 0.00 89 1025.8
20260905212118 57 68 0.0 1.0 0.00 0.00 0.00 89 1025.8
20260905210916 57 0.0 0.0 0.00 0.00 0.00 88 1025.8
20260905205815 57 0.0 0.0 0.00 0.00 0.00 87 1025.8
20260905204614 58 0.0 1.0 0.00 0.00 0.00 86 1025.8
20260905203413 58 0.0 0.0 0.00 0.00 0.00 85 1025.8
20260905202212 59 173 1.0 2.0 0.00 0.00 0.00 83 1025.8
20260905201031 59 68 0.0 1.0 0.00 0.00 0.00 82 1025.8
20260905195809 60 0.0 0.0 0.00 0.00 0.00 82 1025.8
20260905194608 61 9 1.0 1.0 0.00 0.00 0.00 81 1025.8
20260905193407 61 23 1.0 3.0 0.00 0.00 0.00 80 1025.8
20260905192205 62 0 1.0 2.0 0.00 0.00 0.00 79 1025.8
20260905191004 63 350 1.0 2.0 0.00 0.00 0.00 79 1025.8
20260905185823 63 4 1.0 2.0 0.00 0.00 0.00 78 1025.8
20260905184602 64 338 5.0 7.0 0.00 0.00 0.00 77 1025.8
20260905183421 64 315 3.0 6.0 0.00 0.00 0.00 76 1025.8
20260905182159 65 332 3.0 6.0 0.00 0.00 0.00 75 1025.8
20260905180958 65 300 2.0 5.0 0.00 0.00 0.00 74 1025.8
20260905175817 65 315 5.0 6.0 0.00 0.00 0.00 71 1025.8
20260905174556 66 332 7.0 11.0 0.00 0.00 0.00 68 1023.2
20260905173355 66 338 11.0 17.0 0.00 0.00 0.00 71 1024.1
20260905172154 67 322 7.0 13.0 0.00 0.00 0.00 72 1025.8
20260905171012 67 332 10.0 13.0 0.00 0.00 0.00 71 1024.1
20260905165752 67 325 10.0 18.0 0.00 0.00 0.00 70 1022.4
20260905164550 68 293 10.0 11.0 0.00 0.00 0.00 70 1022.4
20260905163349 68 315 10.0 17.0 0.00 0.00 0.00 70 1022.4
20260905162148 68 327 11.0 16.0 0.00 0.00 0.00 69 1022.4
20260905160947 69 338 8.0 14.0 0.00 0.00 0.00 69 1022.4
20260905155746 69 315 10.0 15.0 0.00 0.00 0.00 68 1022.4
20260905154605 69 304 7.0 9.0 0.00 0.00 0.00 68 1022.4
20260905153344 70 309 8.0 9.0 0.00 0.00 0.00 68 1022.4
20260905152144 71 286 5.0 13.0 0.00 0.00 0.00 68 1022.4
20260905150942 71 304 10.0 13.0 0.00 0.00 0.00 68 1022.4
20260905145741 71 270 6.0 9.0 0.00 0.00 0.00 68 1022.4
20260905144540 72 315 10.0 13.0 0.00 0.00 0.00 68 1022.4
20260905143359 73 298 8.0 9.0 0.00 0.00 0.00 68 1022.4
20260905142137 73 270 9.0 11.0 0.00 0.00 0.00 68 1022.4
20260905140936 72 270 9.0 12.0 0.00 0.00 0.00 69 1022.4
20260905135735 72 275 10.0 13.0 0.00 0.00 0.00 69 1022.4
20260905134534 72 305 9.0 12.0 0.00 0.00 0.00 69 1022.4
20260905133333 72 293 10.0 13.0 0.00 0.00 0.00 68 1022.4
20260905132131 72 293 11.0 14.0 0.00 0.00 0.00 67 1022.4
20260905130930 73 305 9.0 16.0 0.00 0.00 0.00 66 1022.4
20260905125729 72 270 7.0 11.0 0.00 0.00 0.00 68 1022.4
20260905124528 72 310 8.0 12.0 0.00 0.00 0.00 68 1022.4
20260905123327 72 293 10.0 14.0 0.00 0.00 0.00 68 1022.4
20260905122125 72 293 10.0 15.0 0.00 0.00 0.00 69 1022.4
20260905120924 71 293 11.0 15.0 0.00 0.00 0.00 70 1022.4
20260905115723 69 296 11.0 15.0 0.00 0.00 0.00 71 1021.5
20260905114522 70 308 9.0 14.0 0.00 0.00 0.00 70 1022.4
20260905113320 71 284 8.0 13.0 0.00 0.00 0.00 71 1022.4
20260905112119 69 293 12.0 15.0 0.00 0.00 0.00 72 1022.4
20260905110919 68 293 9.0 13.0 0.00 0.00 0.00 74 1022.4
20260905105758 68 303 8.0 9.0 0.00 0.00 0.00 76 1022.4
20260905104516 68 293 9.0 14.0 0.00 0.00 0.00 75 1022.4
20260905103315 69 293 9.0 13.0 0.00 0.00 0.00 76 1022.4
20260905102215 68 286 7.0 12.0 0.00 0.00 0.00 77 1022.4
20260905101014 69 315 10.0 13.0 0.00 0.00 0.00 78 1022.4
20260905095812 69 293 10.0 12.0 0.00 0.00 0.00 81 1022.4
20260905094611 68 293 8.0 13.0 0.00 0.00 0.00 81 1022.4
20260905093409 69 286 7.0 13.0 0.00 0.00 0.00 82 1022.4
20260905092227 69 293 7.0 12.0 0.00 0.00 0.00 84 1019.0
20260905091007 68 274 9.0 12.0 0.00 0.00 0.00 86 1019.0
20260905085805 67 270 9.0 14.0 0.00 0.00 0.00 89 1019.0
20260905084604 66 277 8.0 13.0 0.00 0.00 0.00 90 1019.0
20260905083403 65 270 9.0 12.0 0.00 0.00 0.00 91 1019.0
20260905082201 65 270 6.0 9.0 0.00 0.00 0.00 93 1019.0
20260905081000 64 265 6.0 9.0 0.00 0.00 0.00 95 1019.0
20260905075759 63 270 7.0 9.0 0.00 0.00 0.00 96 1019.0
20260905074558 63 270 5.0 8.0 0.00 0.00 0.00 97 1019.0
20260905073417 61 259 7.0 9.0 0.00 0.00 0.00 97 1019.0
20260905072155 61 270 6.0 9.0 0.00 0.00 0.00 97 1019.0
20260905070954 60 270 8.0 11.0 0.00 0.00 0.00 98 1019.0
20260905065813 59 285 4.0 7.0 0.00 0.00 0.00 98 1019.0
20260905064553 59 270 4.0 7.0 0.00 0.00 0.00 98 1019.0
20260905063351 59 270 5.0 9.0 0.00 0.00 0.00 98 1018.2
20260905062150 59 263 5.0 9.0 0.00 0.00 0.00 98 1019.0
20260905060949 58 270 4.0 9.0 0.00 0.00 0.00 98 1019.0
20260905055748 58 252 6.0 7.0 0.00 0.00 0.00 98 1019.0
20260905054547 58 256 5.0 10.0 0.00 0.00 0.00 98 1019.0
20260905053346 58 248 5.0 7.0 0.00 0.00 0.00 98 1019.0
20260905052144 57 270 4.0 7.0 0.00 0.00 0.00 98 1019.0
20260905050943 57 252 4.0 5.0 0.00 0.00 0.00 98 1019.0
20260905045742 57 253 2.0 5.0 0.00 0.00 0.00 98 1019.0
20260905044541 58 270 2.0 3.0 0.00 0.00 0.00 98 1019.0
20260905043340 58 270 5.0 9.0 0.00 0.00 0.00 98 1019.0
20260905042139 58 270 2.0 5.0 0.00 0.00 0.00 97 1016.5
20260905040938 58 270 3.0 6.0 0.00 0.00 0.00 97 1019.0
20260905035757 58 270 4.0 9.0 0.00 0.00 0.00 97 1017.3
20260905034536 58 270 3.0 5.0 0.00 0.00 0.00 97 1016.5
20260905033335 58 283 3.0 4.0 0.00 0.00 0.00 97 1019.0
20260905032153 58 281 3.0 5.0 0.00 0.00 0.00 96 1015.6
20260905030933 58 270 4.0 6.0 0.00 0.00 0.00 96 1015.6
20260905025731 58 270 3.0 7.0 0.00 0.00 0.00 96 1015.6
20260905024530 59 270 4.0 6.0 0.00 0.00 0.00 96 1015.6
20260905023349 59 270 4.0 7.0 0.00 0.00 0.00 96 1015.6
20260905022811 58 270 5.0 7.0 0.00 0.00 0.00 96 1015.6
20260905021610 58 257 4.0 7.0 0.00 0.00 0.00 95 1015.6
20260905020409 59 270 4.0 6.0 0.00 0.00 0.00 95 1015.6
20260905015208 59 285 3.0 6.0 0.00 0.00 0.00 95 1015.6
20260905014006 59 270 3.0 5.0 0.00 0.00 0.00 95 1015.6
20260905012806 59 270 3.0 4.0 0.00 0.00 0.00 95 1015.6
20260905011624 59 270 6.0 7.0 0.00 0.00 0.00 95 1015.6
20260905010403 59 270 4.0 7.0 0.00 0.00 0.00 95 1015.6
20260905005242 59 270 4.0 7.0 0.00 0.00 0.00 95 1015.6
20260905004001 59 270 5.0 7.0 0.00 0.00 0.00 95 1015.6
20260905002800 59 270 3.0 5.0 0.00 0.00 0.00 95 1015.6
20260905001559 59 270 5.0 9.0 0.00 0.00 0.00 95 1015.6
20260905000358 59 270 5.0 6.0 0.00 0.00 0.00 95 1015.6
20260904235157 59 270 5.0 6.0 0.00 0.00 0.00 95 1015.6
20260904233956 60 264 4.0 5.0 0.00 0.00 0.00 95 1015.6
20260904232755 60 262 3.0 7.0 0.00 0.00 0.00 95 1015.6
20260904231554 60 263 3.0 5.0 0.00 0.00 0.00 94 1015.6
20260904230353 60 270 5.0 7.0 0.00 0.00 0.00 94 1015.6
20260904225152 61 260 2.0 4.0 0.00 0.00 0.00 93 1015.6